Location: Lewisville
(33.0462°N, 96.9942°W)
Time: 23:46:47
(UTC-06:00)

LightSail 2 - Visible Passes

Search period start: 19 January 2020 00:00
Search period end: 29 January 2020 00:00
Orbit: 703 x 720 km, 24.0° (Epoch: 19 January)

Date Brightness Start Highest point End Pass type
(mag) Time Alt. Az. Time Alt. Az. Time Alt. Az.
19 Jan 7.0 18:25:25 10° SW 18:29:17 21° SSE 18:33:09 10° ESE visible
19 Jan 6.7 20:09:47 10° WSW 20:13:16 28° SSW 20:13:16 28° SSW visible
20 Jan 6.6 19:11:33 10° SW 19:15:57 28° S 19:18:30 19° SE visible
20 Jan 7.9 20:56:36 10° WSW 20:57:27 14° WSW 20:57:27 14° WSW visible
21 Jan 6.8 18:13:23 10° SW 18:17:38 26° S 18:21:55 10° ESE visible
21 Jan 6.5 19:58:12 10° WSW 20:02:40 30° S 20:02:41 30° S visible
22 Jan 6.5 18:59:51 10° WSW 19:04:20 30° S 19:07:56 14° SE visible
22 Jan 7.6 20:45:14 10° WSW 20:46:53 17° SW 20:46:53 17° SW visible
23 Jan 6.6 19:46:43 10° WSW 19:51:01 27° S 19:52:11 24° SSE visible
24 Jan 6.7 18:48:15 10° WSW 18:52:40 29° S 18:57:06 10° SE visible
24 Jan 7.4 20:34:05 10° WSW 20:36:27 17° SSW 20:36:27 17° SSW visible
25 Jan 7.0 19:35:21 10° WSW 19:39:18 22° SSW 19:41:49 16° SSE visible
26 Jan 7.0 18:36:46 10° WSW 18:40:57 25° S 18:45:09 10° SE visible
26 Jan 7.6 20:23:28 10° SW 20:25:50 13° SSW 20:26:13 13° SSW visible
27 Jan 7.5 19:24:17 10° SW 19:27:30 17° SSW 19:30:43 10° SSE visible
28 Jan 7.4 18:25:26 10° WSW 18:29:09 20° SSW 18:32:53 10° SSE visible
